Zurück zum Katalog

STARLINK-37088

AktivKommunikationVLEO
NORAD 68322·PAYLOAD·🇺🇸 United States

Gestartet Mar 22, 2026 von Cape Canaveral Space Force Station

Loading…

Nächste Überflüge (nächste 24 Stunden)

TLE

AktuellSource: CelesTrak SupGP

Epoche: Sep 15, 2026, 04:24 UTC

1 68322C 26059B   26258.18381944  .00015303  00000+0  45223-3 0  2582
2 68322  53.1588 180.6194 0001224  87.0786 248.7884 15.34375880    13

Verfolge STARLINK-37088 in Echtzeit mit AllMySat

Download on the App Store